Location: Newark
(15.4608°S, 41.1635°W)
Time: 23:24:45
(UTC+00:00)

Transit 4A - Pass Details

Date: 12 March 2021
Orbit: 869 x 975 km, 66.8° (Epoch: 16 April)

Event Time Altitude Azimuth Distance (km) Brightness Sun altitude
Rises 10:25:19 0° 233° (SW) 3,654 10.5 22.7°
Reaches altitude 10° 10:29:17 10° 257° (WSW) 2,714 9.9 23.7°
Maximum altitude 10:32:19 14° 286° (WNW) 2,440 9.7 24.4°
Drops below altitude 10° 10:35:23 10° 315° (NW) 2,713 10.0 25.2°
Sets 10:39:22 0° 339° (NNW) 3,652 10.8 26.1°
